This is the latest recevied weather packets stored in our database for station/object AC4AG. If no packets are shown the sender has not sent any weather packets the latest 10 day(s).
| Time | Temp. | Humidity | Pressure | Rain* | Wind** | Luminosity | Snow |
|---|---|---|---|---|---|---|---|
| 1777591810 | 14.44° C | 52% | 1013.6 hPa | 0 mm | - | 79 W/m² | - |
| 1777591505 | 15° C | 51% | 1013.8 hPa | 0 mm | - | 85 W/m² | - |
| 1777591202 | 15° C | 52% | 1014 hPa | 0 mm | - | 105 W/m² | - |
| 1777590901 | 14.44° C | 52% | 1013.9 hPa | 0 mm | - | 117 W/m² | - |
| 1777590598 | 14.44° C | 51% | 1013.8 hPa | 0 mm | - | 133 W/m² | - |
| 1777590294 | 15° C | 51% | 1013.8 hPa | 0 mm | - | 143 W/m² | - |
| 1777589992 | 14.44° C | 50% | 1014 hPa | 0 mm | - | 160 W/m² | - |
| 1777589688 | 15° C | 50% | 1013.8 hPa | 0 mm | - | 174 W/m² | - |
| 1777589386 | 15° C | 49% | 1013.8 hPa | 0 mm | - | 189 W/m² | - |
| 1777589083 | 15° C | 50% | 1014 hPa | 0 mm | - | 201 W/m² | - |
| 1777588778 | 15° C | 51% | 1013.9 hPa | 0 mm | - | 224 W/m² | - |
| 1777588474 | 15° C | 51% | 1013.5 hPa | 0 mm | - | 241 W/m² | - |
| 1777588169 | 14.44° C | 50% | 1013.9 hPa | 0 mm | - | 252 W/m² | - |
| 1777587866 | 15° C | 49% | 1013.9 hPa | 0 mm | - | 275 W/m² | - |
| 1777587562 | 15° C | 50% | 1014.1 hPa | 0 mm | - | 292 W/m² | - |
| 1777587262 | 15° C | 50% | 1013.9 hPa | 0 mm | - | 310 W/m² | - |
| 1777586958 | 15° C | 50% | 1014 hPa | 0 mm | - | 327 W/m² | - |
| 1777586654 | 15° C | 48% | 1014.1 hPa | 0 mm | - | 349 W/m² | - |
| 1777586349 | 15° C | 50% | 1013.9 hPa | 0 mm | - | 358 W/m² | - |
| 1777586049 | 15° C | 50% | 1013.9 hPa | 0 mm | - | 386 W/m² | - |
| 1777585748 | 15.56° C | 49% | 1014 hPa | 0 mm | - | 400 W/m² | - |
| 1777585448 | 15° C | 51% | 1014 hPa | 0 mm | - | 420 W/m² | - |
| 1777585143 | 15° C | 48% | 1014 hPa | 0 mm | - | 435 W/m² | - |
| 1777584839 | 15° C | 50% | 1014.3 hPa | 0 mm | - | 458 W/m² | - |
| 1777584537 | 15° C | 51% | 1013.9 hPa | 0 mm | - | 481 W/m² | - |
* Rain latest hour (hover to see other rain measurements)
** Current wind speed in m/s (hover to see current wind gust speed)